Goshen, IN

12:53 AM EDT on July 28, 2017 (GMT -0400)
Goshen Municipal

Weather History for KGSH - October, 2012

Change the Weather History Date:

Wednesday, October 3, 2012

  Actual Average Record
Temperature  
Mean Temperature 58 °F -  
Max Temperature 61 °F 68 °F 89 °F (1953)
Min Temperature 55 °F 47 °F 26 °F (1974)
Degree Days  
Heating Degree Days 7    
Growing Degree Days 8 (Base 50)    
Moisture  
Dew Point 55 °F    
Average Humidity 88    
Maximum Humidity 94    
Minimum Humidity 81    
Precipitation  
Precipitation 0.05 in - - ()
Sea Level Pressure  
Sea Level Pressure 29.97 in    
Wind  
Wind Speed 5 mph (SSE)    
Max Wind Speed 12 mph    
Max Gust Speed -    
Visibility 5 miles    
Events Rain    
Averages and records for this station are not official NWS values.
T = Trace of Precipitation, MM = Missing Value Source: NWS Daily Summary

Daily Weather History Graph

Daily Weather History Graph

Search for Another Location

Airport or City:

Trip Planner

Search our weather history database for the weather conditions in past years. The results will help you decide how hot, cold, wet, or windy it might be!

Date:

Astronomy

Oct. 03, 2012 Rise Set
Actual Time 7:42 AM EDT 7:20 PM EDT
Civil Twilight 7:14 AM EDT 7:48 PM EDT
Nautical Twilight 6:42 AM EDT 8:20 PM EDT
Astronomical Twilight 6:10 AM EDT 8:52 PM EDT
Moon 9:09 PM EDT (10/3) 11:08 AM EDT (10/3)
Length of Visible Light 12h 33m
Length of Day
11h 38m
Waning Gibbous, 89% of the Moon is Illuminated
Oct 3
Waning Gibbous
Oct 8
Last Quarter
Oct 15
New
Oct 21
First Quarter
Oct 29
Full

Hourly Weather History & Observations

Time (EDT) Temp. Dew Point Humidity Pressure Visibility Wind Dir Wind Speed Gust Speed Precip Events Conditions
12:03 AM 57.2 °F 53.6 °F 88% 29.90 in 7.0 mi NE 3.5 mph - N/A   Mostly Cloudy
12:25 AM 57.2 °F 53.6 °F 88% 29.90 in 6.0 mi Calm Calm - N/A   Overcast
12:53 AM 57.9 °F 54.0 °F 87% 29.90 in 6.0 mi Calm Calm - N/A   Overcast
1:12 AM 57.2 °F 55.4 °F 94% 29.91 in 4.0 mi Calm Calm - N/A   Overcast
1:25 AM 57.2 °F 55.4 °F 94% 29.91 in 3.0 mi Calm Calm - 0.00 in Rain Light Rain
1:35 AM 57.2 °F 55.4 °F 94% 29.91 in 2.5 mi Calm Calm - 0.01 in Rain Light Rain
1:53 AM 57.9 °F 55.0 °F 90% 29.91 in 2.0 mi NE 3.5 mph - 0.02 in Rain Light Rain
2:04 AM 57.2 °F 55.4 °F 94% 29.91 in 1.5 mi NE 3.5 mph - 0.02 in Rain Light Rain
2:18 AM 57.2 °F 55.4 °F 94% 29.90 in 2.0 mi ENE 4.6 mph - 0.02 in Rain Light Rain
2:53 AM 57.9 °F 55.9 °F 93% 29.90 in 2.5 mi East 4.6 mph - 0.02 in   Overcast
3:02 AM 59.0 °F 55.4 °F 88% 29.91 in 2.5 mi East 4.6 mph - N/A   Overcast
3:11 AM 59.0 °F 57.2 °F 94% 29.91 in 2.5 mi East 4.6 mph - N/A   Overcast
3:53 AM 60.1 °F 57.0 °F 90% 29.90 in 2.5 mi East 4.6 mph - N/A   Overcast
4:24 AM 60.8 °F 57.2 °F 88% 29.91 in 3.0 mi ESE 4.6 mph - N/A   Overcast
4:53 AM 61.0 °F 57.9 °F 90% 29.91 in 3.0 mi SE 6.9 mph - N/A   Overcast
5:12 AM 60.8 °F 57.2 °F 88% 29.91 in 3.0 mi SE 4.6 mph - N/A   Overcast
5:53 AM 60.1 °F 57.0 °F 90% 29.92 in 5.0 mi SSE 6.9 mph - N/A   Overcast
6:26 AM 60.8 °F 57.2 °F 88% 29.94 in 5.0 mi South 5.8 mph - N/A   Overcast
6:42 AM 60.8 °F 57.2 °F 88% 29.94 in 5.0 mi South 6.9 mph - N/A   Overcast
6:50 AM 60.8 °F 57.2 °F 88% 29.94 in 5.0 mi South 9.2 mph - N/A   Overcast
6:53 AM 60.1 °F 57.0 °F 90% 29.94 in 5.0 mi SSE 6.9 mph - N/A   Overcast
7:35 AM 60.8 °F 55.4 °F 82% 29.96 in 6.0 mi SSW 6.9 mph - 0.00 in Rain Light Rain
7:42 AM 60.8 °F 55.4 °F 82% 29.96 in 6.0 mi SSW 5.8 mph - 0.00 in   Overcast
7:53 AM 59.0 °F 55.0 °F 87% 29.96 in 6.0 mi South 5.8 mph - 0.00 in   Overcast
8:46 AM 59.0 °F 55.4 °F 88% 29.98 in 4.0 mi South 5.8 mph - 0.00 in   Overcast
8:53 AM 59.0 °F 55.0 °F 87% 29.98 in 4.0 mi South 8.1 mph - 0.00 in   Overcast
9:21 AM 59.0 °F 55.4 °F 88% 29.99 in 7.0 mi SSW 10.4 mph - N/A   Overcast
9:53 AM 59.0 °F 55.0 °F 87% 29.99 in 6.0 mi South 6.9 mph - N/A   Overcast
10:38 AM 60.8 °F 55.4 °F 82% 30.00 in 6.0 mi South 8.1 mph - N/A   Haze
10:53 AM 60.1 °F 55.0 °F 83% 30.00 in 8.0 mi South 10.4 mph - N/A   Overcast
11:11 AM 60.8 °F 55.4 °F 82% 30.00 in 8.0 mi South 9.2 mph - N/A   Overcast
11:38 AM 60.8 °F 55.4 °F 82% 29.99 in 8.0 mi South 9.2 mph - N/A   Overcast
11:42 AM 60.8 °F 55.4 °F 82% 29.99 in 8.0 mi South 8.1 mph - N/A   Overcast
11:53 AM 61.0 °F 55.0 °F 81% 30.00 in 9.0 mi South 11.5 mph - N/A   Overcast
12:43 PM 59.0 °F 55.4 °F 88% 30.00 in 2.5 mi South 10.4 mph - 0.00 in Rain Light Rain
12:53 PM 59.0 °F 55.9 °F 90% 30.00 in 4.0 mi South 11.5 mph - 0.00 in Rain Light Rain
1:40 PM 59.0 °F 55.4 °F 88% 30.00 in 3.0 mi South 11.5 mph - 0.00 in Rain Light Rain
1:53 PM 59.0 °F 55.9 °F 90% 30.00 in 4.0 mi South 11.5 mph - 0.00 in   Overcast
2:02 PM 59.0 °F 55.4 °F 88% 30.00 in 3.0 mi South 10.4 mph - N/A   Overcast
2:41 PM 59.0 °F 55.4 °F 88% 29.99 in 6.0 mi South 9.2 mph - 0.01 in   Overcast
2:53 PM 59.0 °F 55.0 °F 87% 29.99 in 8.0 mi South 8.1 mph - 0.01 in   Overcast
3:53 PM 60.1 °F 55.0 °F 83% 29.99 in 9.0 mi South 6.9 mph - N/A   Overcast
4:53 PM 60.1 °F 55.9 °F 86% 29.99 in 6.0 mi South 10.4 mph - N/A   Overcast
5:53 PM 60.1 °F 55.0 °F 83% 30.01 in 8.0 mi South 10.4 mph - 0.00 in Rain Light Rain
6:09 PM 60.8 °F 55.4 °F 82% 30.01 in 8.0 mi South 9.2 mph - 0.00 in   Overcast
6:40 PM 60.8 °F 55.4 °F 82% 30.01 in 8.0 mi South 6.9 mph - 0.00 in   Overcast
6:53 PM 61.0 °F 55.0 °F 81% 30.01 in 8.0 mi South 5.8 mph - 0.00 in   Overcast
7:53 PM 60.1 °F 55.0 °F 83% 30.03 in 9.0 mi South 4.6 mph - N/A   Overcast
8:53 PM 59.0 °F 55.0 °F 87% 30.04 in 8.0 mi Calm Calm - 0.00 in   Overcast
9:53 PM 57.0 °F 55.0 °F 93% 30.05 in 5.0 mi Calm Calm - N/A   Overcast
10:53 PM 55.0 °F 53.1 °F 93% 30.06 in 2.5 mi Calm Calm - N/A   Overcast
11:06 PM 55.4 °F 53.6 °F 94% 30.06 in 3.0 mi Calm Calm - N/A   Mostly Cloudy
11:53 PM 55.0 °F 51.1 °F 86% 30.06 in 10.0 mi SSE 4.6 mph - N/A   Clear